WESTFORD NEEDLES, 2362

Orbit data source: Space-Track

WESTFORD NEEDLES, 2362 is space debris originally from a launch on Thu, 09 May 1963 UTC launched from the Air Force Western Test Range (AFWTR). Debris objects in space refer to the collection of defunct objects orbiting the Earth. Examples of debris include non-operational satellites, rocket bodies, and fragments generated from explosions, collisions, or faulty payload assembly.

Loading next visibility...
Identifier
2362, 1963-014M
Orbit
Active
Country
Flag of USUS
Related business
Manufacturer
Unknown
Mission
Spacecraft
Bus & Motor
Unknown
Mass
Unknown
Launch date (UTC)
1963-05-09 (62 years ago)
Launch vehicle
Unknown
Launch site
Air Force Western Test Range (AFWTR)
Object type
Payload
Rocket body
Debris
Shape & HBR
Unknown shape, 0.3 m
Radar Cross Section
Medium (>0.1 m² and <1 m²)

Expand to show TLE details & history
Last TLE update: 2 days ago

TLE from 2 days ago
0 WESTFORD NEEDLES
1 02362U 63014M   25302.41802183  .00007946  00000-0  69430-1 0  9995
2 02362  85.2230   5.1857 2561937 304.3521  34.0422  8.85622845986323
Epoch: 2025-10-29T10:01Z
TLE epoch observation values (Epoch: 2025-10-29T10:01:57.086Z)
Latitude
Longitude
176.70639°
Altitude
1,682.848 km
Speed
7.651 km/s
True Right ascension
00h 20m 44s
True Declination
0° 00' 00"
Sunlit
Object was in full shadow at epoch
Visualization orbit readout
Latitude
Unknown
Longitude
Unknown
Altitude
Unknown
Speed
Unknown
Apparent Right ascension
Unknown
Apparent Declination
Unknown
Sunlit
N/A
Visualization observer readout
Local Sidereal Time
06:37:15
Azimuth
Unknown
Elevation
Unknown
Doppler factor
Unknown
Orbital elements
Apogee altitude
6,015.146 km
Perigee altitude
960.064 km
Semi-major axis
9,865.742 km
Eccentricity
0.25619
Inclination
85.223°
RAAN
5.1857°
Arg. of periapsis
304.3521°
True anomaly
55.75099°
Mean anomaly
34.0422°
Eccentric anomaly
44.29279°
Mean motion
2.21487 °/min
Orbital period
162.54 mins
BSTAR
0.06943
Loading maneuver chart data...
Computing Atmospheric mass density...

Documentation

Showing up to 5 results
|